EW9499 Weather Reports


time (UTC)temp
F
wind
direction
speed
knots
gust
knots
rain 1hr
in
rain 24hr
in
rain mn
in
humidity
%
barometer
mb
20260507155317 58 0.0 3.5 0.00 0.50 0.00 37 1021.4
20260507154317 57 270 0.9 2.6 0.00 0.50 0.00 39 1021.4
20260507153317 56 0.0 0.9 0.00 0.50 0.00 42 1021.1
20260507152317 56 270 0.9 6.1 0.00 0.50 0.00 41 1021.1
20260507151337 54 0.0 0.9 0.00 0.50 0.00 44 1020.9
20260507150317 53 0.0 0.9 0.00 0.50 0.00 46 1020.6
20260507145317 52 0.0 1.7 0.00 0.50 0.00 48 1020.7
20260507144317 51 0.0 2.6 0.00 0.50 0.00 46 1020.7
20260507143337 50 0.0 0.9 0.00 0.50 0.00 49 1020.9
20260507142317 49 0.0 1.7 0.00 0.50 0.00 47 1020.4
20260507141317 48 0.0 0.9 0.00 0.50 0.00 48 1020.6
20260507140317 47 0.0 0.9 0.00 0.50 0.00 47 1020.6
20260507135317 45 0.0 0.9 0.00 0.50 0.00 49 1020.2
20260507134337 44 0.0 0.9 0.00 0.50 0.00 49 1020.2
20260507133317 43 0.0 0.0 0.00 0.50 0.00 50 1020.2
20260507132317 43 0.0 0.9 0.00 0.50 0.00 50 1020.0
20260507131317 42 0.0 0.9 0.00 0.50 0.00 50 1019.5
20260507130317 41 0.0 0.0 0.00 0.50 0.00 50 1019.5
20260507125316 40 0.0 2.6 0.00 0.50 0.00 52 1019.0
20260507124317 40 0.0 0.9 0.00 0.50 0.00 52 1019.0
20260507123317 39 0.0 0.0 0.00 0.50 0.00 52 1018.8
20260507122316 39 0.0 0.0 0.00 0.50 0.00 52 1018.7
20260507121317 39 0.0 1.7 0.00 0.50 0.00 52 1018.7
20260507120316 38 0.0 2.6 0.00 0.50 0.00 52 1018.2
20260507115337 38 0.0 0.0 0.00 0.50 0.00 53 1018.2
20260507114316 38 0.0 3.5 0.00 0.50 0.00 54 1018.3
20260507113316 37 0.0 3.5 0.00 0.50 0.00 55 1018.3
20260507112316 37 0.0 0.0 0.00 0.50 0.00 56 1018.3
20260507111316 38 0.0 0.0 0.00 0.50 0.00 55 1018.7
20260507110336 38 0.0 0.9 0.00 0.50 0.00 55 1018.9
20260507105357 38 0.0 1.7 0.00 0.50 0.00 55 1019.0
20260507104317 39 0.0 0.0 0.00 0.50 0.00 54 1019.0
20260507103317 39 0.0 0.0 0.00 0.50 0.00 54 1019.1
20260507102316 39 0.0 0.9 0.00 0.50 0.00 53 1019.2
20260507101336 39 248 0.9 7.0 0.00 0.50 0.00 54 1019.2
20260507100317 39 0.0 0.0 0.00 0.50 0.00 55 1019.4
20260507095316 38 0.0 2.6 0.00 0.50 0.00 59 1019.3
20260507094317 36 0.0 1.7 0.00 0.50 0.00 65 1018.9
20260507093336 34 0.0 0.0 0.00 0.50 0.00 75 1018.6
20260507092316 32 0.0 1.7 0.00 0.50 0.00 83 1018.2
20260507091316 32 0.0 0.0 0.00 0.50 0.00 86 1018.2
20260507090316 32 0.0 1.7 0.00 0.50 0.00 88 1018.4
20260507085316 32 0.0 0.0 0.00 0.50 0.00 88 1018.5
20260507084316 32 0.0 0.9 0.00 0.50 0.00 89 1018.5
20260507083316 32 0.0 0.9 0.00 0.50 0.00 90 1018.6
20260507082316 32 0.0 1.7 0.00 0.50 0.00 90 1018.7
20260507081316 32 0.0 0.9 0.00 0.50 0.00 90 1018.2
20260507080316 32 0.0 2.6 0.00 0.50 0.00 91 1018.3
20260507075316 32 0.0 2.6 0.00 0.50 0.00 90 1018.5
20260507074316 32 0.0 0.0 0.00 0.50 0.00 91 1018.6
20260507073316 32 0.0 3.5 0.00 0.50 0.00 91 1018.6
20260507072316 32 0.0 0.9 0.00 0.50 0.00 91 1019.3
20260507071316 32 0.0 2.6 0.00 0.50 0.00 91 1018.8
20260507070316 32 0.0 0.9 0.00 0.50 0.00 91 1018.8
20260507065316 32 203 0.9 5.2 0.00 0.50 0.00 91 1018.9
20260507064336 32 0.0 1.7 0.00 0.50 0.00 91 1019.0
20260507063316 32 0.0 0.9 0.00 0.50 0.00 90 1019.2
20260507062316 33 0.0 0.0 0.00 0.50 0.00 91 1018.7
20260507061316 33 0.0 3.5 0.00 0.50 0.00 91 1019.2
20260507060316 33 0.0 0.0 0.00 0.50 0.00 91 1019.2
20260507055316 33 0.0 1.7 0.00 0.50 0.50 91 1019.1
20260507054316 33 0.0 2.6 0.00 0.50 0.50 91 1019.1
20260507053316 33 0.0 0.0 0.00 0.50 0.50 91 1019.1
20260507052316 33 0.0 1.7 0.00 0.50 0.50 91 1019.1
20260507051316 34 0.0 4.3 0.00 0.50 0.50 91 1019.1
20260507050336 34 203 0.9 5.2 0.00 0.50 0.50 91 1019.6
20260507045316 33 0.0 0.0 0.00 0.50 0.50 92 1019.6
20260507044317 33 0.0 0.9 0.00 0.50 0.50 92 1019.3
20260507043336 33 0.0 0.9 0.00 0.50 0.50 92 1019.2
20260507042316 32 0.0 0.9 0.00 0.50 0.50 92 1019.2
20260507041316 32 0.0 0.0 0.00 0.50 0.50 92 1019.2
20260507040316 31 0.0 3.5 0.00 0.50 0.50 92 1018.7
20260507035316 31 0.0 0.0 0.00 0.50 0.50 91 1018.7
20260507034316 31 0.0 0.0 0.00 0.50 0.50 91 1018.9
20260507033316 31 0.0 0.0 0.00 0.50 0.50 91 1018.9
20260507032316 31 0.0 0.0 0.00 0.50 0.50 91 1018.4
20260507031316 31 0.0 0.0 0.00 0.50 0.50 91 1018.4
20260507030316 31 0.0 0.9 0.00 0.50 0.50 89 1018.3
20260507025316 31 0.0 0.0 0.00 0.50 0.50 88 1018.3
20260507024316 31 0.0 0.0 0.00 0.51 0.50 88 1018.2
20260507023316 32 0.0 0.0 0.00 0.51 0.50 87 1018.1
20260507022316 32 0.0 0.0 0.00 0.51 0.50 87 1018.1
20260507021316 33 0.0 0.0 0.00 0.51 0.50 86 1018.6
20260507020316 33 0.0 0.0 0.00 0.51 0.50 85 1018.5
20260507015316 34 0.0 0.0 0.00 0.51 0.50 85 1018.5
20260507014336 35 0.0 0.0 0.00 0.51 0.50 85 1018.6
20260507013336 35 0.0 0.0 0.00 0.51 0.50 84 1018.6
20260507012316 35 0.0 0.0 0.00 0.51 0.50 84 1018.7
20260507011316 35 0.0 0.0 0.00 0.51 0.50 83 1018.7
20260507010316 35 0.0 0.0 0.00 0.52 0.50 83 1018.7
20260507005316 35 0.0 0.0 0.00 0.52 0.50 83 1018.6
20260507004316 35 0.0 0.0 0.00 0.52 0.50 83 1018.5
20260507003316 35 0.0 0.0 0.00 0.52 0.50 82 1018.5
20260507002316 35 0.0 0.0 0.00 0.53 0.50 83 1018.5
20260507001316 35 0.0 0.0 0.00 0.53 0.50 82 1018.5
20260507000316 35 0.0 0.0 0.00 0.54 0.50 80 1018.7
20260506235316 35 0.0 0.0 0.00 0.54 0.50 82 1018.8
20260506234316 35 0.0 0.0 0.00 0.54 0.50 82 1018.6
20260506233315 35 0.0 0.0 0.00 0.55 0.50 82 1018.8
20260506232316 36 0.0 0.0 0.00 0.55 0.50 83 1018.9
20260506231316 36 0.0 0.0 0.00 0.55 0.50 83 1018.8
20260506230316 36 0.0 0.0 0.00 0.55 0.50 85 1018.9
20260506225336 36 0.0 0.0 0.00 0.55 0.50 85 1018.8
20260506224316 36 0.0 0.0 0.00 0.55 0.50 83 1018.7
20260506223336 36 0.0 0.0 0.00 0.55 0.50 84 1018.8
20260506222316 36 0.0 0.0 0.01 0.55 0.50 84 1019.4
20260506221336 36 0.0 1.7 0.02 0.55 0.50 84 1019.5
20260506220316 36 0.0 0.0 0.03 0.55 0.50 82 1019.4
20260506215316 37 0.0 0.0 0.04 0.55 0.50 84 1019.4
20260506214316 37 0.0 0.0 0.05 0.55 0.50 85 1019.5
20260506213318 36 0.0 0.0 0.06 0.56 0.50 86 1019.5
20260506212318 36 0.0 0.0 0.07 0.55 0.49 84 1019.6
20260506211318 37 0.0 0.0 0.08 0.54 0.48 86 1019.6
20260506210317 37 0.0 0.0 0.08 0.53 0.47 86 1019.7
20260506205318 37 0.0 0.0 0.09 0.52 0.46 87 1019.8
20260506204318 37 0.0 0.0 0.10 0.51 0.45 88 1019.9
20260506203318 36 0.0 0.0 0.11 0.50 0.44 89 1019.9
20260506202317 36 0.0 0.0 0.12 0.48 0.42 91 1019.9
20260506201318 35 0.0 0.0 0.13 0.47 0.40 89 1019.4
20260506200317 35 0.0 0.0 0.15 0.46 0.39 89 1019.4
20260506195318 36 0.0 0.0 0.14 0.44 0.37 90 1019.4
20260506194318 35 0.0 0.0 0.13 0.42 0.35 90 1019.8
20260506193318 35 0.0 0.0 0.13 0.40 0.33 90 1019.8
20260506192318 36 0.0 0.9 0.11 0.37 0.31 90 1019.8
20260506191317 36 0.0 0.0 0.10 0.34 0.27 91 1019.8
20260506190317 35 0.0 0.0 0.08 0.31 0.24 91 1019.8
20260506185317 35 0.0 0.0 0.09 0.30 0.23 92 1019.9
20260506184317 34 0.0 0.0 0.10 0.30 0.22 92 1019.3
20260506183317 34 0.0 1.7 0.09 0.28 0.20 92 1019.3
20260506182317 34 0.0 0.0 0.09 0.27 0.19 92 1019.2
20260506181317 34 0.0 0.0 0.08 0.25 0.17 92 1019.2
20260506180338 33 0.0 0.0 0.09 0.24 0.16 92 1019.3
20260506175317 33 0.0 0.0 0.08 0.22 0.14 92 1019.2
20260506174317 33 0.0 2.6 0.08 0.20 0.12 92 1018.8
20260506173317 33 0.0 0.0 0.08 0.20 0.11 92 1018.5
20260506172317 34 0.0 3.5 0.09 0.19 0.10 92 1019.1
20260506171317 34 0.0 0.0 0.08 0.18 0.09 92 1019.1
20260506170317 35 0.0 0.0 0.07 0.16 0.07 93 1019.0
20260506165318 35 0.0 0.0 0.06 0.16 0.06 94 1018.9
20260506164317 34 0.0 0.0 0.04 0.14 0.04 94 1018.8
20260506163317 34 0.0 0.0 0.03 0.13 0.03 94 1018.8
20260506162317 34 0.0 0.0 0.01 0.12 0.01 94 1018.8
20260506161317 34 0.0 0.0 0.01 0.12 0.01 94 1018.7
20260506160317 34 0.0 0.0 0.00 0.11 0.00 94 1018.6